Time,TemperatureF,DewpointF,PressureIn,WindDirection,WindDirectionDegrees,WindSpeedMPH,WindSpeedGustMPH,Humidity,HourlyPrecipIn,Conditions,Clouds,dailyrainin,SoftwareType,DateUTC
2013-07-27 00:02:00,67.3,57.2,29.96,SSE,162,0.0,0.0,70,0.00,,,0.00,meteohub,2013-07-27 07:02:00,
2013-07-27 00:07:00,67.3,57.2,29.96,SSE,162,0.0,0.0,70,0.00,,,0.00,meteohub,2013-07-27 07:07:00,
2013-07-27 00:17:00,67.1,57.0,29.96,SSE,162,0.0,0.0,70,0.00,,,0.00,meteohub,2013-07-27 07:17:00,
2013-07-27 00:27:00,67.1,57.0,29.96,SSE,163,0.0,0.0,70,0.00,,,0.00,meteohub,2013-07-27 07:27:00,
2013-07-27 00:32:00,66.9,56.8,29.96,SSE,163,0.0,0.0,70,0.00,,,0.00,meteohub,2013-07-27 07:32:00,
2013-07-27 00:37:00,67.1,57.0,29.96,SSE,163,0.0,0.0,70,0.00,,,0.00,meteohub,2013-07-27 07:37:00,
2013-07-27 00:42:00,67.1,57.0,29.96,SSE,163,0.0,0.0,70,0.00,,,0.00,meteohub,2013-07-27 07:42:00,
2013-07-27 00:47:00,67.1,57.0,29.96,SSE,163,0.0,0.0,70,0.00,,,0.00,meteohub,2013-07-27 07:47:00,
2013-07-27 00:52:00,67.3,57.2,29.96,SSE,162,0.0,0.0,70,0.00,,,0.00,meteohub,2013-07-27 07:52:00,
2013-07-27 01:02:00,67.6,57.0,29.95,SSE,163,0.0,0.0,69,0.00,,,0.00,meteohub,2013-07-27 08:02:00,
2013-07-27 01:07:00,67.5,57.0,29.95,SSE,163,0.0,0.0,69,0.00,,,0.00,meteohub,2013-07-27 08:07:00,
2013-07-27 01:12:00,67.6,56.7,29.95,SSE,163,0.0,0.0,68,0.00,,,0.00,meteohub,2013-07-27 08:12:00,
2013-07-27 01:22:00,68.2,56.8,29.95,SSE,163,0.0,0.0,67,0.00,,,0.00,meteohub,2013-07-27 08:22:00,
2013-07-27 01:27:00,68.4,57.0,29.95,SSE,163,0.0,0.0,67,0.00,,,0.00,meteohub,2013-07-27 08:27:00,
2013-07-27 01:32:00,68.4,56.5,29.95,SSE,162,0.0,0.0,66,0.00,,,0.00,meteohub,2013-07-27 08:32:00,
2013-07-27 01:42:00,68.4,56.5,29.95,SSE,163,0.0,0.0,66,0.00,,,0.00,meteohub,2013-07-27 08:42:00,
2013-07-27 01:47:00,68.5,56.7,29.95,SSE,163,0.0,0.0,66,0.00,,,0.00,meteohub,2013-07-27 08:47:00,
2013-07-27 01:52:00,68.5,56.3,29.95,SSE,163,0.0,0.0,65,0.00,,,0.00,meteohub,2013-07-27 08:52:00,
2013-07-27 01:57:00,68.5,56.3,29.95,SSE,163,0.0,0.0,65,0.00,,,0.00,meteohub,2013-07-27 08:57:00,
2013-07-27 02:02:00,68.7,56.5,29.95,SSE,163,0.0,0.0,65,0.00,,,0.00,meteohub,2013-07-27 09:02:00,
2013-07-27 02:07:00,68.7,56.5,29.95,SSE,163,0.0,0.0,65,0.00,,,0.00,meteohub,2013-07-27 09:07:00,
2013-07-27 02:12:00,68.7,56.1,29.94,SSE,163,0.0,0.0,64,0.00,,,0.00,meteohub,2013-07-27 09:12:00,
2013-07-27 02:17:00,68.7,56.1,29.94,SSE,163,0.0,0.0,64,0.00,,,0.00,meteohub,2013-07-27 09:17:00,
2013-07-27 02:27:00,68.9,56.3,29.94,SSE,163,0.0,0.0,64,0.00,,,0.00,meteohub,2013-07-27 09:27:00,
2013-07-27 02:32:00,68.7,56.1,29.94,SSE,163,0.0,0.0,64,0.00,,,0.00,meteohub,2013-07-27 09:32:00,
2013-07-27 02:37:00,68.5,56.3,29.94,SSE,163,0.0,0.0,65,0.00,,,0.00,meteohub,2013-07-27 09:37:00,
2013-07-27 02:42:00,68.5,56.3,29.94,SSE,163,0.0,0.0,65,0.00,,,0.00,meteohub,2013-07-27 09:42:00,
2013-07-27 02:47:00,68.5,55.9,29.94,SSE,163,0.0,0.0,64,0.00,,,0.00,meteohub,2013-07-27 09:47:00,
2013-07-27 02:57:00,68.4,56.1,29.94,SSE,163,0.0,0.0,65,0.00,,,0.00,meteohub,2013-07-27 09:57:00,
2013-07-27 03:07:00,68.4,56.5,29.94,SSE,163,0.0,0.0,66,0.00,,,0.00,meteohub,2013-07-27 10:07:00,
2013-07-27 03:17:00,67.8,56.1,29.94,SSE,163,0.0,0.0,66,0.00,,,0.00,meteohub,2013-07-27 10:17:00,
2013-07-27 03:22:00,67.8,56.1,29.93,SSE,163,0.0,0.0,66,0.00,,,0.00,meteohub,2013-07-27 10:22:00,
2013-07-27 03:27:00,67.8,56.5,29.94,SSE,163,0.0,0.0,67,0.00,,,0.00,meteohub,2013-07-27 10:27:00,
2013-07-27 03:32:00,67.8,56.8,29.94,SSE,163,0.0,0.0,68,0.00,,,0.00,meteohub,2013-07-27 10:32:00,
2013-07-27 03:37:00,67.6,56.7,29.94,SSE,163,0.0,0.0,68,0.00,,,0.00,meteohub,2013-07-27 10:37:00,
2013-07-27 03:47:00,67.5,56.5,29.94,SSE,163,0.0,0.0,68,0.00,,,0.00,meteohub,2013-07-27 10:47:00,
2013-07-27 03:57:00,67.3,56.3,29.93,SSE,163,0.0,0.0,68,0.00,,,0.00,meteohub,2013-07-27 10:57:00,
2013-07-27 04:07:00,66.9,56.5,29.94,SSE,163,0.0,0.0,69,0.00,,,0.00,meteohub,2013-07-27 11:07:00,
2013-07-27 04:12:00,66.9,55.9,29.94,SSE,162,0.0,0.0,68,0.00,,,0.00,meteohub,2013-07-27 11:12:00,
2013-07-27 04:17:00,66.7,55.8,29.94,SSE,163,0.0,0.0,68,0.00,,,0.00,meteohub,2013-07-27 11:17:00,
2013-07-27 04:27:00,66.7,55.8,29.93,SSE,163,0.0,0.0,68,0.00,,,0.00,meteohub,2013-07-27 11:27:00,
2013-07-27 04:37:00,66.7,55.4,29.93,SSE,163,0.0,0.0,67,0.00,,,0.00,meteohub,2013-07-27 11:37:00,
2013-07-27 04:47:00,66.9,54.9,29.94,SSE,163,0.0,0.0,65,0.00,,,0.00,meteohub,2013-07-27 11:47:00,
2013-07-27 04:52:00,66.9,54.3,29.93,SSE,163,0.0,0.0,64,0.00,,,0.00,meteohub,2013-07-27 11:52:00,
2013-07-27 04:57:00,66.9,54.0,29.93,SSE,163,0.0,0.0,63,0.00,,,0.00,meteohub,2013-07-27 11:57:00,
2013-07-27 05:07:00,66.6,54.5,29.94,SSE,162,0.0,0.0,65,0.00,,,0.00,meteohub,2013-07-27 12:07:00,
2013-07-27 05:12:00,66.4,55.6,29.94,SSE,163,0.0,0.0,68,0.00,,,0.00,meteohub,2013-07-27 12:12:00,
2013-07-27 05:17:00,66.2,55.8,29.94,SSE,163,0.0,0.0,69,0.00,,,0.00,meteohub,2013-07-27 12:17:00,
2013-07-27 05:22:00,66.2,55.8,29.93,SSE,163,0.0,0.0,69,0.00,,,0.00,meteohub,2013-07-27 12:22:00,
2013-07-27 05:32:00,66.4,55.6,29.93,SSE,163,0.0,0.0,68,0.00,,,0.00,meteohub,2013-07-27 12:32:00,
2013-07-27 05:37:00,66.4,55.6,29.93,SSE,162,0.0,0.0,68,0.00,,,0.00,meteohub,2013-07-27 12:37:00,
2013-07-27 05:42:00,66.4,55.0,29.94,SSE,163,0.0,0.0,67,0.00,,,0.00,meteohub,2013-07-27 12:42:00,
2013-07-27 05:47:00,66.4,54.7,29.94,SSE,162,0.0,0.0,66,0.00,,,0.00,meteohub,2013-07-27 12:47:00,
2013-07-27 05:52:00,66.4,54.3,29.94,SSE,162,0.0,0.0,65,0.00,,,0.00,meteohub,2013-07-27 12:52:00,
2013-07-27 05:57:00,66.6,54.5,29.94,SSE,163,0.0,0.0,65,0.00,,,0.00,meteohub,2013-07-27 12:57:00,
2013-07-27 06:07:00,66.6,54.0,29.94,SSE,163,0.0,0.0,64,0.00,,,0.00,meteohub,2013-07-27 13:07:00,
2013-07-27 06:12:00,66.4,53.8,29.94,SSE,163,0.0,0.0,64,0.00,,,0.00,meteohub,2013-07-27 13:12:00,
2013-07-27 06:17:00,66.4,54.3,29.94,SSE,163,0.0,0.0,65,0.00,,,0.00,meteohub,2013-07-27 13:17:00,
2013-07-27 06:22:00,66.4,53.8,29.94,SSE,163,0.0,0.0,64,0.00,,,0.00,meteohub,2013-07-27 13:22:00,
2013-07-27 06:27:00,66.6,54.0,29.94,SSE,163,0.0,0.0,64,0.00,,,0.00,meteohub,2013-07-27 13:27:00,
2013-07-27 06:32:00,66.7,54.7,29.94,SSE,163,0.0,0.0,65,0.00,,,0.00,meteohub,2013-07-27 13:32:00,
2013-07-27 06:42:00,67.3,53.8,29.94,SSE,163,0.0,0.0,62,0.00,,,0.00,meteohub,2013-07-27 13:42:00,
2013-07-27 06:47:00,67.6,54.1,29.94,SSE,163,0.0,0.0,62,0.00,,,0.00,meteohub,2013-07-27 13:47:00,
2013-07-27 06:52:00,67.6,54.1,29.94,SSE,162,0.0,0.0,62,0.00,,,0.00,meteohub,2013-07-27 13:52:00,
2013-07-27 06:57:00,67.8,54.7,29.94,SSE,163,0.0,0.0,63,0.00,,,0.00,meteohub,2013-07-27 13:57:00,
2013-07-27 07:02:00,68.0,55.4,29.94,SSE,163,0.0,0.0,64,0.00,,,0.00,meteohub,2013-07-27 14:02:00,
2013-07-27 07:07:00,67.8,55.6,29.94,SSE,163,0.0,0.0,65,0.00,,,0.00,meteohub,2013-07-27 14:07:00,
2013-07-27 07:12:00,68.0,55.8,29.94,SSE,163,0.0,0.0,65,0.00,,,0.00,meteohub,2013-07-27 14:12:00,
2013-07-27 07:17:00,68.2,55.9,29.94,SSE,163,0.0,0.0,65,0.00,,,0.00,meteohub,2013-07-27 14:17:00,
2013-07-27 07:22:00,68.4,56.1,29.94,SSE,163,0.0,0.0,65,0.00,,,0.00,meteohub,2013-07-27 14:22:00,
2013-07-27 07:32:00,69.1,56.8,29.94,SSE,163,0.0,0.0,65,0.00,,,0.00,meteohub,2013-07-27 14:32:00,
2013-07-27 07:37:00,69.3,56.1,29.94,SSE,163,0.0,0.0,63,0.00,,,0.00,meteohub,2013-07-27 14:37:00,
2013-07-27 07:42:00,69.6,56.8,29.94,SSE,163,0.0,0.0,64,0.00,,,0.00,meteohub,2013-07-27 14:42:00,
2013-07-27 07:47:00,70.0,57.7,29.94,SSE,163,0.0,0.0,65,0.00,,,0.00,meteohub,2013-07-27 14:47:00,
2013-07-27 07:52:00,70.2,57.0,29.94,SSE,163,0.0,0.0,63,0.00,,,0.00,meteohub,2013-07-27 14:52:00,
2013-07-27 07:57:00,70.5,57.7,29.94,SSE,163,0.0,0.0,64,0.00,,,0.00,meteohub,2013-07-27 14:57:00,
2013-07-27 08:07:00,71.1,57.7,29.94,SSE,163,0.0,0.0,63,0.00,,,0.00,meteohub,2013-07-27 15:07:00,
2013-07-27 08:12:00,71.1,59.2,29.94,SSE,163,0.0,0.0,66,0.00,,,0.00,meteohub,2013-07-27 15:12:00,
2013-07-27 08:17:00,71.2,59.4,29.94,SSE,163,0.0,0.0,66,0.00,,,0.00,meteohub,2013-07-27 15:17:00,
2013-07-27 08:22:00,71.2,57.9,29.94,SSE,163,0.0,0.0,63,0.00,,,0.00,meteohub,2013-07-27 15:22:00,
2013-07-27 08:32:00,71.1,55.9,29.94,SSE,163,0.0,0.0,59,0.00,,,0.00,meteohub,2013-07-27 15:32:00,
2013-07-27 08:37:00,71.2,55.8,29.94,SSE,163,0.0,0.0,58,0.00,,,0.00,meteohub,2013-07-27 15:37:00,
2013-07-27 08:47:00,72.0,56.3,29.95,WSW,252,0.0,0.0,58,0.00,,,0.00,meteohub,2013-07-27 15:47:00,
2013-07-27 08:57:00,72.3,55.8,29.94,North,10,0.0,0.0,56,0.00,,,0.00,meteohub,2013-07-27 15:57:00,
2013-07-27 09:07:00,73.2,56.7,29.94,WNW,287,0.0,0.0,56,0.00,,,0.00,meteohub,2013-07-27 16:07:00,
2013-07-27 09:12:00,73.6,56.8,29.94,WSW,253,0.0,0.0,56,0.00,,,0.00,meteohub,2013-07-27 16:12:00,
2013-07-27 09:22:00,73.6,57.4,29.94,West,273,0.0,2.0,57,0.00,,,0.00,meteohub,2013-07-27 16:22:00,
2013-07-27 09:27:00,74.5,56.7,29.94,NNE,23,0.0,2.0,54,0.00,,,0.00,meteohub,2013-07-27 16:27:00,
2013-07-27 09:37:00,76.3,57.4,29.94,NNE,29,0.0,2.0,52,0.00,,,0.00,meteohub,2013-07-27 16:37:00,
2013-07-27 09:42:00,75.6,56.1,29.94,North,351,0.0,2.0,51,0.00,,,0.00,meteohub,2013-07-27 16:42:00,
2013-07-27 09:47:00,74.8,56.1,29.94,North,356,1.0,3.0,52,0.00,,,0.00,meteohub,2013-07-27 16:47:00,
2013-07-27 09:52:00,74.8,56.1,29.94,ESE,120,1.0,3.0,52,0.00,,,0.00,meteohub,2013-07-27 16:52:00,
2013-07-27 09:57:00,75.0,56.7,29.94,ESE,121,0.0,3.0,53,0.00,,,0.00,meteohub,2013-07-27 16:57:00,
2013-07-27 10:02:00,75.4,56.5,29.94,SSW,201,0.0,2.0,52,0.00,,,0.00,meteohub,2013-07-27 17:02:00,
2013-07-27 10:07:00,75.6,56.1,29.94,WSW,249,0.0,2.0,51,0.00,,,0.00,meteohub,2013-07-27 17:07:00,
2013-07-27 10:12:00,76.1,57.2,29.94,NW,313,0.0,0.0,52,0.00,,,0.00,meteohub,2013-07-27 17:12:00,
2013-07-27 10:22:00,76.1,53.8,29.94,ESE,110,0.0,0.0,46,0.00,,,0.00,meteohub,2013-07-27 17:22:00,
2013-07-27 10:27:00,75.9,53.6,29.94,East,82,0.0,0.0,46,0.00,,,0.00,meteohub,2013-07-27 17:27:00,
2013-07-27 10:32:00,76.5,52.9,29.94,ESE,119,0.0,0.0,44,0.00,,,0.00,meteohub,2013-07-27 17:32:00,
2013-07-27 10:37:00,76.6,53.8,29.94,ESE,112,2.0,5.0,45,0.00,,,0.00,meteohub,2013-07-27 17:37:00,
2013-07-27 10:47:00,79.0,55.8,29.94,East,91,0.0,5.0,45,0.00,,,0.00,meteohub,2013-07-27 17:47:00,
2013-07-27 10:52:00,79.5,54.5,29.94,SSW,195,1.0,4.0,42,0.00,,,0.00,meteohub,2013-07-27 17:52:00,
2013-07-27 10:57:00,79.7,55.2,29.93,WNW,290,0.0,4.0,43,0.00,,,0.00,meteohub,2013-07-27 17:57:00,
2013-07-27 11:02:00,79.3,54.9,29.93,SW,236,1.0,6.0,43,0.00,,,0.00,meteohub,2013-07-27 18:02:00,
2013-07-27 11:07:00,78.6,54.9,29.94,ESE,114,2.0,6.0,44,0.00,,,0.00,meteohub,2013-07-27 18:07:00,
2013-07-27 11:12:00,78.1,55.0,29.93,WSW,249,1.0,6.0,45,0.00,,,0.00,meteohub,2013-07-27 18:12:00,
2013-07-27 11:22:00,78.3,54.5,29.93,ESE,117,2.0,7.0,44,0.00,,,0.00,meteohub,2013-07-27 18:22:00,
2013-07-27 11:32:00,78.4,55.4,29.93,West,272,1.0,7.0,45,0.00,,,0.00,meteohub,2013-07-27 18:32:00,
2013-07-27 11:37:00,79.2,54.7,29.93,SW,229,0.0,7.0,43,0.00,,,0.00,meteohub,2013-07-27 18:37:00,
2013-07-27 11:47:00,79.5,53.1,29.93,SE,134,2.0,6.0,40,0.00,,,0.00,meteohub,2013-07-27 18:47:00,
2013-07-27 11:52:00,79.2,54.1,29.93,SW,233,1.0,6.0,42,0.00,,,0.00,meteohub,2013-07-27 18:52:00,
2013-07-27 11:57:00,79.3,54.9,29.92,South,172,2.0,6.0,43,0.00,,,0.00,meteohub,2013-07-27 18:57:00,
2013-07-27 12:07:00,80.1,54.3,29.92,WSW,242,3.0,5.0,41,0.00,,,0.00,meteohub,2013-07-27 19:07:00,
2013-07-27 12:17:00,80.2,55.0,29.92,NNE,29,1.0,5.0,42,0.00,,,0.00,meteohub,2013-07-27 19:17:00,
2013-07-27 12:27:00,81.5,54.1,29.92,NW,319,0.0,5.0,39,0.00,,,0.00,meteohub,2013-07-27 19:27:00,
2013-07-27 12:32:00,81.1,53.8,29.92,SW,224,0.0,7.0,39,0.00,,,0.00,meteohub,2013-07-27 19:32:00,
2013-07-27 12:37:00,80.8,54.9,29.92,West,276,4.0,7.0,41,0.00,,,0.00,meteohub,2013-07-27 19:37:00,
2013-07-27 12:42:00,81.0,53.6,29.92,WSW,250,1.0,7.0,39,0.00,,,0.00,meteohub,2013-07-27 19:42:00,
2013-07-27 12:52:00,81.7,55.0,29.91,ESE,121,2.0,7.0,40,0.00,,,0.00,meteohub,2013-07-27 19:52:00,
2013-07-27 12:57:00,81.0,55.0,29.91,SSW,208,1.0,7.0,41,0.00,,,0.00,meteohub,2013-07-27 19:57:00,
2013-07-27 13:07:00,80.2,55.0,29.91,ESE,115,5.0,7.0,42,0.00,,,0.00,meteohub,2013-07-27 20:07:00,
2013-07-27 13:17:00,79.9,56.7,29.91,East,84,3.0,10.0,45,0.00,,,0.00,meteohub,2013-07-27 20:17:00,
2013-07-27 13:22:00,78.8,56.3,29.91,SSE,166,2.0,10.0,46,0.00,,,0.00,meteohub,2013-07-27 20:22:00,
2013-07-27 13:27:00,78.3,56.3,29.91,NNW,334,3.0,8.0,47,0.00,,,0.00,meteohub,2013-07-27 20:27:00,
2013-07-27 13:37:00,78.1,55.6,29.90,SSE,160,2.0,11.0,46,0.00,,,0.00,meteohub,2013-07-27 20:37:00,
2013-07-27 13:42:00,78.1,54.3,29.90,ESE,117,1.0,8.0,44,0.00,,,0.00,meteohub,2013-07-27 20:42:00,
2013-07-27 13:52:00,78.1,55.0,29.90,ESE,107,5.0,9.0,45,0.00,,,0.00,meteohub,2013-07-27 20:52:00,
2013-07-27 13:57:00,78.3,54.5,29.90,SE,124,4.0,14.0,44,0.00,,,0.00,meteohub,2013-07-27 20:57:00,
2013-07-27 14:02:00,78.4,55.9,29.90,SSW,201,3.0,14.0,46,0.00,,,0.00,meteohub,2013-07-27 21:02:00,
2013-07-27 14:12:00,79.5,54.5,29.89,East,82,4.0,8.0,42,0.00,,,0.00,meteohub,2013-07-27 21:12:00,
2013-07-27 14:17:00,79.9,55.9,29.89,SSW,194,3.0,7.0,44,0.00,,,0.00,meteohub,2013-07-27 21:17:00,
2013-07-27 14:27:00,79.3,55.6,29.89,SW,233,4.0,7.0,44,0.00,,,0.00,meteohub,2013-07-27 21:27:00,
2013-07-27 14:32:00,79.2,55.4,29.88,SE,124,2.0,7.0,44,0.00,,,0.00,meteohub,2013-07-27 21:32:00,
2013-07-27 14:42:00,78.6,55.6,29.88,West,260,2.0,12.0,45,0.00,,,0.00,meteohub,2013-07-27 21:42:00,
2013-07-27 14:47:00,78.3,55.8,29.88,South,177,5.0,13.0,46,0.00,,,0.00,meteohub,2013-07-27 21:47:00,
2013-07-27 14:52:00,78.4,55.4,29.88,SW,217,3.0,13.0,45,0.00,,,0.00,meteohub,2013-07-27 21:52:00,
2013-07-27 14:57:00,78.4,54.7,29.88,East,80,2.0,13.0,44,0.00,,,0.00,meteohub,2013-07-27 21:57:00,
2013-07-27 15:02:00,78.4,55.4,29.88,SSW,193,0.0,9.0,45,0.00,,,0.00,meteohub,2013-07-27 22:02:00,
2013-07-27 15:07:00,79.0,55.8,29.87,SE,142,3.0,7.0,45,0.00,,,0.00,meteohub,2013-07-27 22:07:00,
2013-07-27 15:17:00,78.1,54.3,29.87,NE,46,4.0,9.0,44,0.00,,,0.00,meteohub,2013-07-27 22:17:00,
2013-07-27 15:27:00,77.7,54.1,29.87,SSW,203,3.0,10.0,44,0.00,,,0.00,meteohub,2013-07-27 22:27:00,
2013-07-27 15:32:00,78.1,55.0,29.86,SSW,203,2.0,10.0,45,0.00,,,0.00,meteohub,2013-07-27 22:32:00,
2013-07-27 15:37:00,78.6,54.3,29.86,East,99,6.0,10.0,43,0.00,,,0.00,meteohub,2013-07-27 22:37:00,
2013-07-27 15:42:00,78.1,53.8,29.86,SSE,159,2.0,10.0,43,0.00,,,0.00,meteohub,2013-07-27 22:42:00,
2013-07-27 15:47:00,78.1,54.3,29.86,SE,138,1.0,9.0,44,0.00,,,0.00,meteohub,2013-07-27 22:47:00,
2013-07-27 15:52:00,77.7,53.4,29.86,NE,50,3.0,12.0,43,0.00,,,0.00,meteohub,2013-07-27 22:52:00,
2013-07-27 15:57:00,77.4,53.8,29.86,SSW,211,1.0,12.0,44,0.00,,,0.00,meteohub,2013-07-27 22:57:00,
2013-07-27 16:07:00,77.4,53.8,29.86,SSE,166,6.0,8.0,44,0.00,,,0.00,meteohub,2013-07-27 23:07:00,
2013-07-27 16:17:00,76.6,53.8,29.86,WSW,257,2.0,10.0,45,0.00,,,0.00,meteohub,2013-07-27 23:17:00,
2013-07-27 16:27:00,76.3,54.5,29.86,South,191,3.0,10.0,47,0.00,,,0.00,meteohub,2013-07-27 23:27:00,
2013-07-27 16:32:00,75.9,54.3,29.85,SSE,147,2.0,12.0,47,0.00,,,0.00,meteohub,2013-07-27 23:32:00,
2013-07-27 16:37:00,75.6,54.5,29.85,SW,214,5.0,12.0,48,0.00,,,0.00,meteohub,2013-07-27 23:37:00,
2013-07-27 16:42:00,75.4,54.9,29.85,SSE,160,2.0,13.0,49,0.00,,,0.00,meteohub,2013-07-27 23:42:00,
2013-07-27 16:47:00,75.2,54.7,29.85,East,93,5.0,13.0,49,0.00,,,0.00,meteohub,2013-07-27 23:47:00,
2013-07-27 16:52:00,74.8,55.0,29.85,SE,138,5.0,13.0,50,0.00,,,0.00,meteohub,2013-07-27 23:52:00,
2013-07-27 16:57:00,74.5,54.7,29.85,East,96,4.0,8.0,50,0.00,,,0.00,meteohub,2013-07-27 23:57:00,
2013-07-27 17:07:00,73.8,54.5,29.85,SSE,160,1.0,12.0,51,0.00,,,0.00,meteohub,2013-07-28 00:07:00,
2013-07-27 17:17:00,73.2,54.5,29.85,SW,217,2.0,10.0,52,0.00,,,0.00,meteohub,2013-07-28 00:17:00,
2013-07-27 17:22:00,73.0,54.9,29.84,SSW,211,3.0,11.0,53,0.00,,,0.00,meteohub,2013-07-28 00:22:00,
2013-07-27 17:27:00,72.7,55.6,29.84,SSE,156,2.0,11.0,55,0.00,,,0.00,meteohub,2013-07-28 00:27:00,
2013-07-27 17:32:00,72.1,55.6,29.84,SSE,156,2.0,11.0,56,0.00,,,0.00,meteohub,2013-07-28 00:32:00,
2013-07-27 17:42:00,71.4,54.5,29.84,East,98,4.0,12.0,55,0.00,,,0.00,meteohub,2013-07-28 00:42:00,
2013-07-27 17:47:00,71.2,54.7,29.83,SE,129,4.0,12.0,56,0.00,,,0.00,meteohub,2013-07-28 00:47:00,
2013-07-27 17:57:00,71.1,55.6,29.83,ESE,117,3.0,10.0,58,0.00,,,0.00,meteohub,2013-07-28 00:57:00,
2013-07-27 18:02:00,71.1,55.6,29.83,SE,132,6.0,11.0,58,0.00,,,0.00,meteohub,2013-07-28 01:02:00,
2013-07-27 18:12:00,70.9,56.3,29.83,SSE,165,1.0,13.0,60,0.00,,,0.00,meteohub,2013-07-28 01:12:00,
2013-07-27 18:22:00,70.3,56.3,29.83,ESE,122,9.0,11.0,61,0.00,,,0.00,meteohub,2013-07-28 01:22:00,
2013-07-27 18:27:00,70.0,56.3,29.83,ESE,104,8.0,11.0,62,0.00,,,0.00,meteohub,2013-07-28 01:27:00,
2013-07-27 18:37:00,69.3,56.5,29.83,South,174,5.0,12.0,64,0.00,,,0.00,meteohub,2013-07-28 01:37:00,
2013-07-27 18:42:00,69.1,56.5,29.83,SE,135,2.0,12.0,64,0.00,,,0.00,meteohub,2013-07-28 01:42:00,
2013-07-27 18:47:00,68.7,56.1,29.83,ENE,73,4.0,12.0,64,0.00,,,0.00,meteohub,2013-07-28 01:47:00,
2013-07-27 18:57:00,68.5,55.4,29.83,SSE,167,8.0,12.0,63,0.00,,,0.00,meteohub,2013-07-28 01:57:00,
2013-07-27 19:02:00,68.5,55.0,29.83,SE,132,1.0,12.0,62,0.00,,,0.00,meteohub,2013-07-28 02:02:00,
2013-07-27 19:07:00,68.5,53.6,29.83,SE,142,3.0,12.0,59,0.00,,,0.00,meteohub,2013-07-28 02:07:00,
2013-07-27 19:17:00,68.5,53.2,29.83,SSE,148,6.0,10.0,58,0.00,,,0.00,meteohub,2013-07-28 02:17:00,
2013-07-27 19:27:00,68.4,52.0,29.83,SSE,153,10.0,14.0,56,0.00,,,0.00,meteohub,2013-07-28 02:27:00,
2013-07-27 19:32:00,68.5,51.3,29.83,ESE,117,2.0,14.0,54,0.00,,,0.00,meteohub,2013-07-28 02:32:00,
2013-07-27 19:42:00,68.5,51.3,29.83,SSE,149,5.0,10.0,54,0.00,,,0.00,meteohub,2013-07-28 02:42:00,
2013-07-27 19:47:00,68.4,52.5,29.83,ENE,75,5.0,10.0,57,0.00,,,0.00,meteohub,2013-07-28 02:47:00,
2013-07-27 19:57:00,68.2,51.4,29.83,ESE,117,3.0,11.0,55,0.00,,,0.00,meteohub,2013-07-28 02:57:00,
2013-07-27 20:02:00,67.8,50.5,29.83,SE,130,4.0,11.0,54,0.00,,,0.00,meteohub,2013-07-28 03:02:00,
2013-07-27 20:07:00,67.6,48.9,29.83,SE,142,3.0,10.0,51,0.00,,,0.00,meteohub,2013-07-28 03:07:00,
2013-07-27 20:17:00,67.8,49.1,29.83,ESE,110,3.0,10.0,51,0.00,,,0.00,meteohub,2013-07-28 03:17:00,
2013-07-27 20:22:00,67.6,48.4,29.83,ESE,104,3.0,10.0,50,0.00,,,0.00,meteohub,2013-07-28 03:22:00,
2013-07-27 20:27:00,67.6,48.4,29.84,SSW,200,5.0,10.0,50,0.00,,,0.00,meteohub,2013-07-28 03:27:00,
2013-07-27 20:37:00,67.8,46.9,29.84,South,172,4.0,11.0,47,0.00,,,0.00,meteohub,2013-07-28 03:37:00,
2013-07-27 20:42:00,68.0,46.9,29.84,East,85,3.0,11.0,47,0.00,,,0.00,meteohub,2013-07-28 03:42:00,
2013-07-27 20:47:00,67.8,48.0,29.84,ESE,103,3.0,11.0,49,0.00,,,0.00,meteohub,2013-07-28 03:47:00,
2013-07-27 20:57:00,67.8,48.0,29.85,South,173,4.0,10.0,49,0.00,,,0.00,meteohub,2013-07-28 03:57:00,
2013-07-27 21:02:00,68.0,46.4,29.85,SE,145,3.0,10.0,46,0.00,,,0.00,meteohub,2013-07-28 04:02:00,
2013-07-27 21:07:00,68.0,46.4,29.85,ESE,120,2.0,10.0,46,0.00,,,0.00,meteohub,2013-07-28 04:07:00,
2013-07-27 21:17:00,68.0,48.2,29.85,ESE,108,2.0,12.0,49,0.00,,,0.00,meteohub,2013-07-28 04:17:00,
2013-07-27 21:22:00,68.0,46.4,29.85,ESE,103,3.0,12.0,46,0.00,,,0.00,meteohub,2013-07-28 04:22:00,
2013-07-27 21:27:00,68.0,45.9,29.85,ESE,120,3.0,10.0,45,0.00,,,0.00,meteohub,2013-07-28 04:27:00,
2013-07-27 21:32:00,68.2,47.1,29.86,ESE,120,6.0,10.0,47,0.00,,,0.00,meteohub,2013-07-28 04:32:00,
2013-07-27 21:37:00,68.2,47.1,29.86,SSE,154,3.0,10.0,47,0.00,,,0.00,meteohub,2013-07-28 04:37:00,
2013-07-27 21:47:00,68.0,46.9,29.86,SW,228,5.0,10.0,47,0.00,,,0.00,meteohub,2013-07-28 04:47:00,
2013-07-27 21:57:00,68.0,46.9,29.86,East,96,5.0,12.0,47,0.00,,,0.00,meteohub,2013-07-28 04:57:00,
2013-07-27 22:02:00,67.8,46.9,29.86,SE,128,3.0,12.0,47,0.00,,,0.00,meteohub,2013-07-28 05:02:00,
2013-07-27 22:07:00,67.8,46.9,29.86,East,83,3.0,9.0,47,0.00,,,0.00,meteohub,2013-07-28 05:07:00,
2013-07-27 22:17:00,67.6,47.3,29.86,SE,129,2.0,12.0,48,0.00,,,0.00,meteohub,2013-07-28 05:17:00,
2013-07-27 22:27:00,67.5,47.1,29.86,NE,34,2.0,9.0,48,0.00,,,0.00,meteohub,2013-07-28 05:27:00,
2013-07-27 22:32:00,67.3,46.9,29.86,SE,129,7.0,9.0,48,0.00,,,0.00,meteohub,2013-07-28 05:32:00,
2013-07-27 22:42:00,67.5,47.7,29.86,ESE,120,3.0,12.0,49,0.00,,,0.00,meteohub,2013-07-28 05:42:00,
2013-07-27 22:47:00,67.3,47.5,29.86,South,190,5.0,12.0,49,0.00,,,0.00,meteohub,2013-07-28 05:47:00,
2013-07-27 22:57:00,67.3,46.9,29.86,East,98,2.0,8.0,48,0.00,,,0.00,meteohub,2013-07-28 05:57:00,
2013-07-27 23:02:00,67.3,47.5,29.86,SE,139,3.0,8.0,49,0.00,,,0.00,meteohub,2013-07-28 06:02:00,
2013-07-27 23:07:00,67.3,48.0,29.85,SE,139,3.0,8.0,50,0.00,,,0.00,meteohub,2013-07-28 06:07:00,
2013-07-27 23:12:00,67.3,47.5,29.86,SE,146,2.0,8.0,49,0.00,,,0.00,meteohub,2013-07-28 06:12:00,
2013-07-27 23:22:00,66.9,47.1,29.86,SSW,193,2.0,7.0,49,0.00,,,0.00,meteohub,2013-07-28 06:22:00,
2013-07-27 23:32:00,66.9,47.1,29.86,SSE,148,1.0,8.0,49,0.00,,,0.00,meteohub,2013-07-28 06:32:00,
2013-07-27 23:37:00,67.1,47.8,29.86,South,170,2.0,8.0,50,0.00,,,0.00,meteohub,2013-07-28 06:37:00,
2013-07-27 23:47:00,66.9,47.1,29.86,SW,215,1.0,7.0,49,0.00,,,0.00,meteohub,2013-07-28 06:47:00,
2013-07-27 23:52:00,66.9,46.6,29.85,SE,134,9.0,9.0,48,0.00,,,0.00,meteohub,2013-07-28 06:52:00,